{"data":{"norad_id":65124,"intl_designator":"2025-170F","name":"GEESAT-4 06","alt_names":[],"object_type":"PAYLOAD","status":"ACTIVE","operator":null,"country":"PRC","launch_date":"2025-08-08","launch_site_code":"YSLA","launch_vehicle":null,"mission":null,"orbit_class":"UNKNOWN","rcs_meters":null,"size_class":null,"mass_kg":null,"dimensions":null,"purposes":[],"wikipedia_slug":null,"has_3d_model":false,"image_url":null,"decayed_at":null,"tle_current":{"epoch":"2026-09-21T21:29:25.977120Z","epoch_age_seconds":44253,"freshness":"FRESH","line1":"1 65124U 25170F   26264.89543955  .00000939  00000+0  13787-3 0  9990","line2":"2 65124  49.9834  85.4407 0018592  53.0987 307.1652 14.84273500 60792","mean_motion":14.842735,"eccentricity":0.0018592,"inclination_deg":49.9834,"raan_deg":85.4407,"arg_perigee_deg":53.0987,"mean_anomaly_deg":307.1652,"bstar":0.00013787,"rev_number":6079,"period_min":97.017160247084,"perigee_km":602.86389524874,"apogee_km":628.87040027177,"semimajor_km":6994.0041477603,"source":"CELESTRAK","updated_at":"2026-09-22T09:00:30.143951Z"}}}